Погода в Гватемале

Гватемала     14°34′54″N   90°31′46″W
темп.,
°C
ветер,
м/с
пор.,
м/с
влажн.,
%
обл.,
%
осадки,
мм/ч
давл.,
гПа
погр.,
м
15 мая, сб
сб1500:00+16с369331 0.0 1018230
03:00+16с379686 0.0 1016280
06:00+16с379348 0.0 1017309
09:00+21ссв356327 0.0 1017694
12:00+26св234925 0.0 10141640
15:00+22ююв1371100 0.4 1013415
18:00+19с1284100 2.4 101473
21:00+17с259499 1.8 1017121
16 мая, вс
вс1600:00+16ссв249691 2.1 1017112
03:00+15с249722 0.0 101595
06:00+15с249615 0.0 101789
09:00+22ссв22670 0.0 1017720
12:00+27всв124641 0.0 10141883
15:00+22ю227497 1.2 1013595
18:00+19ююз238815 3.4 101483
21:00+17зсз119650 0.3 101725
17 мая, пн
пн1700:00+17с2193100 0.6 101633
03:00+16зсз019480 0.4 101513
06:00+16ссз0193100 0.4 101617
09:00+21ю1178100 0.0 1017614
12:00+23ю3269100 0.2 10151132
15:00+22ююз327674 1.4 1013889
18:00+18ююз229396 2.0 1015310
21:00+17ююз129566 0.7 1017124
18 мая, вт
вт1800:00+16ссз119651 1.5 101625
03:00+16с119349 0.1 101512
06:00+16с1192100 0.1 101617
09:00+21ю1274100 0.0 1016557
12:00+24ююз336160 0.1 10141465
15:00+23ююз336930 0.6 10121060
18:00+19ююз239158 1.3 1013322
21:00+17ююз139765 0.3 1016125
19 мая, ср
ср1900:00+17юз239455 0.8 1015110
03:00+16зюз119674 0.4 101441
06:00+15сз01957 0.6 101518
09:00+21ю2272100 0.3 1015671
12:00+25ю325533 0.4 10131629
15:00+24ююз436529 0.4 10111150
18:00+18ююз249470 1.8 1012342
21:00+17ююз129858 0.6 1014103